GW4725 Weather Reports


time (UTC)temp
C
wind
direction
speed
KPH
gust
KPH
rain 1hr
cm
rain 24hr
cm
rain mn
cm
humidity
%
barometer
mb
20260509202046 21 35 0.0 0.0 0.00 0.00 0.00 47 1010.6
20260509201541 21 139 0.0 0.0 0.00 0.00 0.00 46 1010.7
20260509201039 22 250 0.0 0.0 0.00 0.00 0.00 46 1010.7
20260509200538 21 252 0.0 0.0 0.00 0.00 0.00 49 1010.7
20260509200036 21 68 0.0 0.0 0.00 0.00 0.00 48 1010.7
20260509195532 21 256 0.0 1.6 0.00 0.00 0.00 49 1010.7
20260509195031 21 137 1.6 4.8 0.00 0.00 0.00 48 1010.9
20260509194526 21 201 0.0 3.2 0.00 0.00 0.00 48 1011.0
20260509194024 21 136 0.0 3.2 0.00 0.00 0.00 48 1011.0
20260509193524 21 132 0.0 1.6 0.00 0.00 0.00 50 1011.0
20260509193022 22 268 0.0 0.0 0.00 0.00 0.00 46 1011.0
20260509192517 21 273 0.0 4.8 0.00 0.00 0.00 48 1010.8
20260509192012 21 130 0.0 3.2 0.00 0.00 0.00 51 1010.8
20260509191507 22 164 0.0 0.0 0.00 0.00 0.00 52 1010.8
20260509191003 21 253 0.0 3.2 0.00 0.00 0.00 50 1010.9
20260509190500 21 78 1.6 12.9 0.00 0.00 0.00 51 1011.1
20260509185958 20 104 0.0 1.6 0.00 0.00 0.00 51 1011.1
20260509185455 20 96 3.2 11.3 0.00 0.00 0.00 52 1010.9
20260509184952 20 145 1.6 6.4 0.00 0.00 0.00 53 1011.1
20260509184451 20 133 3.2 11.3 0.00 0.00 0.00 54 1011.3
20260509183947 20 91 6.4 6.4 0.00 0.00 0.00 54 1011.3
20260509183446 19 71 6.4 9.7 0.00 0.00 0.00 56 1011.3
20260509182943 19 112 6.4 12.9 0.00 0.00 0.00 54 1011.3
20260509182439 20 140 3.2 11.3 0.00 0.00 0.00 54 1011.7
20260509181937 20 165 4.8 9.7 0.00 0.00 0.00 60 1011.6
20260509181435 19 109 3.2 9.7 0.00 0.00 0.00 56 1011.8
20260509180932 19 138 6.4 9.7 0.00 0.00 0.00 55 1011.7
20260509180427 18 91 3.2 4.8 0.00 0.00 0.00 59 1011.8
20260509175924 18 80 1.6 11.3 0.00 0.00 0.00 58 1011.9
20260509175421 18 162 1.6 6.4 0.00 0.00 0.00 59 1011.9
20260509174917 17 93 4.8 9.7 0.00 0.00 0.00 61 1012.0
20260509174413 18 116 3.2 9.7 0.00 0.00 0.00 60 1012.2
20260509173910 17 118 0.0 4.8 0.00 0.00 0.00 61 1012.3
20260509173409 17 149 0.0 3.2 0.00 0.00 0.00 62 1012.6
20260509172906 17 77 1.6 3.2 0.00 0.00 0.00 61 1012.6
20260509172403 17 252 0.0 1.6 0.00 0.00 0.00 61 1012.9
20260509171858 17 343 0.0 1.6 0.00 0.00 0.00 63 1012.7
20260509171355 17 343 0.0 1.6 0.00 0.00 0.00 64 1012.9
20260509170851 17 16 0.0 0.0 0.00 0.00 0.00 65 1012.8
20260509170348 16 78 0.0 0.0 0.00 0.00 0.00 63 1013.2
20260509165848 16 80 0.0 1.6 0.00 0.00 0.00 63 1013.5
20260509165342 17 57 0.0 0.0 0.00 0.00 0.00 63 1013.3
20260509164838 16 264 0.0 0.0 0.00 0.00 0.00 63 1013.3
20260509164335 16 130 0.0 1.6 0.00 0.00 0.00 63 1013.4
20260509163831 16 303 0.0 1.6 0.00 0.00 0.00 64 1013.0
20260509163328 16 91 0.0 3.2 0.00 0.00 0.00 64 1013.2
20260509162827 17 6 0.0 0.0 0.00 0.00 0.00 64 1012.8
20260509162320 17 70 0.0 3.2 0.00 0.00 0.00 62 1012.9
20260509161817 17 318 0.0 4.8 0.00 0.00 0.00 62 1012.7
20260509161314 17 26 0.0 0.0 0.00 0.00 0.00 64 1012.8
20260509160809 16 86 0.0 4.8 0.00 0.00 0.00 63 1012.9
20260509160305 16 54 0.0 1.6 0.00 0.00 0.00 65 1013.0
20260509155801 16 58 4.8 6.4 0.00 0.00 0.00 63 1013.0
20260509155257 17 111 0.0 0.0 0.00 0.00 0.00 62 1013.4
20260509154753 16 111 0.0 3.2 0.00 0.00 0.00 63 1013.3
20260509154250 16 46 0.0 0.0 0.00 0.00 0.00 63 1013.1
20260509153747 17 94 0.0 0.0 0.00 0.00 0.00 62 1013.3
20260509153243 16 140 1.6 4.8 0.00 0.00 0.00 64 1013.2
20260509152739 16 166 0.0 3.2 0.00 0.00 0.00 65 1013.2
20260509152236 17 83 8.0 9.7 0.00 0.00 0.00 62 1013.3
20260509151733 17 73 3.2 9.7 0.00 0.00 0.00 64 1013.2
20260509151229 16 111 0.0 3.2 0.00 0.00 0.00 64 1013.2
20260509150728 16 69 3.2 4.8 0.00 0.00 0.00 63 1013.1
20260509150226 16 15 0.0 1.6 0.00 0.00 0.00 65 1013.2
20260509145722 16 72 4.8 6.4 0.00 0.00 0.00 62 1013.3
20260509145217 16 49 3.2 6.4 0.00 0.00 0.00 65 1013.2
20260509144714 16 56 0.0 4.8 0.00 0.00 0.00 64 1013.2
20260509144211 16 61 0.0 0.0 0.00 0.00 0.00 64 1013.3
20260509143708 15 4 0.0 3.2 0.00 0.00 0.00 66 1013.3
20260509143205 15 106 0.0 3.2 0.00 0.00 0.00 68 1013.4
20260509142700 15 91 3.2 3.2 0.00 0.00 0.00 69 1013.4
20260509142157 15 110 0.0 0.0 0.00 0.00 0.00 69 1013.5
20260509141653 14 72 0.0 0.0 0.00 0.00 0.00 69 1013.4
20260509141150 14 72 0.0 0.0 0.00 0.00 0.00 71 1013.4
20260509140647 14 72 0.0 0.0 0.00 0.00 0.00 70 1013.3
20260509140145 14 72 0.0 0.0 0.00 0.00 0.00 70 1013.3
20260509135642 14 72 0.0 0.0 0.00 0.00 0.00 71 1013.2
20260509135140 14 91 0.0 0.0 0.00 0.00 0.00 70 1013.3
20260509134636 14 58 0.0 0.0 0.00 0.00 0.00 70 1013.1
20260509134134 13 58 0.0 0.0 0.00 0.00 0.00 70 1013.0
20260509133631 13 136 0.0 0.0 0.00 0.00 0.00 71 1013.1
20260509133128 13 136 0.0 0.0 0.00 0.00 0.00 71 1013.2
20260509132626 13 136 0.0 0.0 0.00 0.00 0.00 70 1013.1
20260509132124 13 136 0.0 0.0 0.00 0.00 0.00 71 1013.2
20260509131620 13 136 0.0 0.0 0.00 0.00 0.00 72 1013.0
20260509131117 13 136 0.0 0.0 0.00 0.00 0.00 70 1013.3
20260509130613 13 136 0.0 0.0 0.00 0.00 0.00 71 1013.4
20260509130109 13 136 0.0 0.0 0.00 0.00 0.00 71 1013.1
20260509125606 13 136 0.0 0.0 0.00 0.00 0.00 74 1013.3
20260509125102 13 136 0.0 0.0 0.00 0.00 0.00 70 1013.3
20260509124559 13 136 0.0 0.0 0.00 0.00 0.00 73 1013.4
20260509124056 13 136 0.0 0.0 0.00 0.00 0.00 72 1013.1
20260509123554 13 136 0.0 0.0 0.00 0.00 0.00 74 1013.3
20260509123051 13 136 0.0 0.0 0.00 0.00 0.00 74 1013.4
20260509122547 13 136 0.0 0.0 0.00 0.00 0.00 74 1013.3
20260509122044 12 136 0.0 0.0 0.00 0.00 0.00 77 1013.5
20260509121540 12 136 0.0 0.0 0.00 0.00 0.00 76 1013.2
20260509121038 12 136 0.0 0.0 0.00 0.00 0.00 74 1013.5
20260509120536 12 2 0.0 0.0 0.00 0.00 0.00 72 1013.2
20260509120034 12 2 0.0 0.0 0.00 0.00 0.00 74 1013.3
20260509115531 12 2 0.0 0.0 0.00 0.00 0.00 77 1013.1
20260509115029 12 2 0.0 0.0 0.00 0.00 0.00 77 1013.1
20260509114527 12 2 0.0 0.0 0.00 0.00 0.00 75 1013.5
20260509114026 12 2 0.0 0.0 0.00 0.00 0.00 77 1013.4
20260509113523 12 2 0.0 0.0 0.00 0.00 0.00 77 1013.3
20260509113021 12 2 0.0 0.0 0.00 0.00 0.00 76 1013.2
20260509112517 12 2 0.0 0.0 0.00 0.00 0.00 78 1013.2
20260509112014 12 2 0.0 0.0 0.00 0.00 0.00 77 1013.1
20260509111511 12 2 0.0 0.0 0.00 0.00 0.00 75 1013.1
20260509111008 12 2 0.0 0.0 0.00 0.00 0.00 77 1013.1
20260509110505 12 2 0.0 0.0 0.00 0.00 0.00 73 1013.2
20260509110002 12 2 0.0 0.0 0.00 0.00 0.00 79 1012.9
20260509105500 12 2 0.0 0.0 0.00 0.00 0.00 76 1012.9
20260509104957 12 2 0.0 0.0 0.00 0.00 0.00 74 1013.1
20260509104454 12 2 0.0 0.0 0.00 0.00 0.00 76 1012.9
20260509103951 12 2 0.0 0.0 0.00 0.00 0.00 75 1012.9
20260509103449 12 2 0.0 0.0 0.00 0.00 0.00 74 1012.9
20260509102947 12 2 0.0 0.0 0.00 0.00 0.00 75 1013.0
20260509102444 12 2 0.0 0.0 0.00 0.00 0.00 73 1012.7
20260509101940 12 2 0.0 0.0 0.00 0.00 0.00 71 1012.6
20260509101436 12 2 0.0 0.0 0.00 0.00 0.00 71 1012.7
20260509100934 12 2 0.0 0.0 0.00 0.00 0.00 71 1012.4
20260509100431 12 2 0.0 0.0 0.00 0.00 0.00 71 1012.4
20260509095927 12 2 0.0 0.0 0.00 0.00 0.00 69 1012.5
20260509095425 12 2 0.0 0.0 0.00 0.00 0.00 72 1012.2
20260509094922 12 2 0.0 0.0 0.00 0.00 0.00 70 1012.4
20260509094418 12 2 0.0 0.0 0.00 0.00 0.00 68 1012.3
20260509093916 12 2 0.0 0.0 0.00 0.00 0.00 67 1012.3
20260509093413 13 2 0.0 0.0 0.00 0.00 0.00 66 1012.2
20260509092912 13 2 0.0 0.0 0.00 0.00 0.00 66 1012.4
20260509092409 13 2 0.0 0.0 0.00 0.00 0.00 63 1012.3
20260509091907 13 2 0.0 0.0 0.00 0.00 0.00 58 1012.3
20260509091403 14 2 0.0 0.0 0.00 0.00 0.00 59 1012.4
20260509090901 15 2 0.0 0.0 0.00 0.00 0.00 55 1012.3
20260509090358 15 287 0.0 0.0 0.00 0.00 0.00 51 1012.0
20260509085856 15 283 0.0 1.6 0.00 0.00 0.00 49 1012.1
20260509085353 15 305 0.0 1.6 0.00 0.00 0.00 49 1012.2
20260509084849 15 263 1.6 3.2 0.00 0.00 0.00 48 1012.2
20260509084346 15 258 0.0 0.0 0.00 0.00 0.00 49 1012.4
20260509083844 15 252 0.0 0.0 0.00 0.00 0.00 51 1012.1
20260509083340 15 278 0.0 0.0 0.00 0.00 0.00 50 1012.2
20260509082837 15 282 0.0 0.0 0.00 0.00 0.00 51 1012.3
20260509082333 15 275 0.0 0.0 0.00 0.00 0.00 50 1012.4
20260509081831 15 253 0.0 0.0 0.00 0.00 0.00 51 1012.5
20260509081328 15 278 0.0 0.0 0.00 0.00 0.00 50 1012.4
20260509080826 15 325 0.0 0.0 0.00 0.00 0.00 50 1012.4
20260509080323 15 279 0.0 0.0 0.00 0.00 0.00 50 1012.5
20260509075821 15 270 0.0 0.0 0.00 0.00 0.00 51 1012.3
20260509075318 15 242 1.6 4.8 0.00 0.00 0.00 50 1012.5
20260509074815 15 276 0.0 6.4 0.00 0.00 0.00 50 1012.3
20260509074313 15 275 3.2 6.4 0.00 0.00 0.00 51 1012.5
20260509073809 15 303 0.0 0.0 0.00 0.00 0.00 53 1012.4
20260509073305 15 254 0.0 3.2 0.00 0.00 0.00 54 1012.4
20260509072802 14 129 0.0 1.6 0.00 0.00 0.00 56 1012.5
20260509072259 14 129 1.6 4.8 0.00 0.00 0.00 55 1012.4
20260509071755 13 292 0.0 4.8 0.00 0.00 0.00 58 1012.6
20260509071253 12 310 0.0 0.0 0.00 0.00 0.00 69 1012.7
20260509070750 12 310 0.0 0.0 0.00 0.00 0.00 76 1012.7
20260509070246 11 310 0.0 1.6 0.00 0.00 0.00 72 1012.6
20260509065742 11 130 0.0 0.0 0.00 0.00 0.00 82 1012.6
20260509065239 10 129 0.0 0.0 0.00 0.00 0.00 87 1012.8
20260509064735 10 130 0.0 0.0 0.00 0.00 0.00 89 1012.6
20260509064233 10 132 0.0 0.0 0.00 0.00 0.00 88 1012.6
20260509063730 10 132 0.0 0.0 0.00 0.00 0.00 88 1012.9
20260509063226 9 132 0.0 0.0 0.00 0.00 0.00 89 1012.9
20260509062724 9 132 0.0 0.0 0.00 0.00 0.00 89 1012.8
20260509062221 9 132 0.0 0.0 0.00 0.00 0.00 88 1012.8
20260509061718 9 132 0.0 0.0 0.00 0.00 0.00 88 1013.0
20260509061215 9 132 0.0 0.0 0.00 0.00 0.00 88 1013.2
20260509060713 9 132 0.0 0.0 0.00 0.00 0.00 88 1013.1
20260509060209 9 132 0.0 0.0 0.00 0.00 0.00 88 1013.1
20260509055704 9 132 0.0 0.0 0.00 0.00 0.00 87 1013.1
20260509055200 9 132 0.0 0.0 0.00 0.00 0.00 86 1013.2
20260509054657 9 132 0.0 0.0 0.00 0.00 0.00 86 1013.2
20260509054155 9 132 0.0 0.0 0.00 0.00 0.00 87 1013.4
20260509053653 9 132 0.0 0.0 0.00 0.00 0.00 86 1013.3
20260509053149 10 132 0.0 0.0 0.00 0.00 0.00 86 1013.2
20260509052648 10 132 0.0 0.0 0.00 0.00 0.00 86 1013.4
20260509052145 10 132 0.0 0.0 0.00 0.00 0.00 86 1013.3
20260509051643 9 132 0.0 0.0 0.00 0.00 0.00 86 1013.4
20260509051140 9 132 0.0 0.0 0.00 0.00 0.00 86 1013.3
20260509050637 9 132 0.0 0.0 0.00 0.00 0.00 86 1013.1
20260509050133 9 132 0.0 0.0 0.00 0.00 0.00 86 1013.2
20260509045631 9 132 0.0 0.0 0.00 0.00 0.00 86 1013.2
20260509045127 9 132 0.0 0.0 0.00 0.00 0.00 87 1013.1
20260509044625 9 132 0.0 0.0 0.00 0.00 0.00 86 1013.2
20260509044122 9 132 0.0 0.0 0.00 0.00 0.00 86 1013.3
20260509043618 9 138 0.0 0.0 0.00 0.00 0.00 86 1013.3
20260509043114 8 132 0.0 0.0 0.00 0.00 0.00 87 1013.2
20260509042611 8 132 0.0 0.0 0.00 0.00 0.00 88 1013.2
20260509042106 8 132 0.0 0.0 0.00 0.00 0.00 87 1013.2
20260509041603 8 138 0.0 0.0 0.00 0.00 0.00 87 1013.2
20260509041101 8 138 0.0 0.0 0.00 0.00 0.00 87 1013.2
20260509040559 8 132 0.0 0.0 0.00 0.00 0.00 87 1013.6
20260509040055 9 132 0.0 0.0 0.00 0.00 0.00 87 1013.6
20260509035552 9 132 0.0 0.0 0.00 0.00 0.00 86 1013.5
20260509035049 9 132 0.0 0.0 0.00 0.00 0.00 86 1013.5
20260509034547 9 132 0.0 0.0 0.00 0.00 0.00 86 1013.3
20260509034044 9 132 0.0 0.0 0.00 0.00 0.00 85 1013.5
20260509033541 9 132 0.0 0.0 0.00 0.00 0.00 85 1013.7
20260509033038 10 132 0.0 0.0 0.00 0.00 0.00 84 1013.6
20260509032535 10 132 0.0 0.0 0.00 0.00 0.00 83 1013.5
20260509032032 10 130 0.0 0.0 0.00 0.00 0.00 83 1013.5
20260509031530 10 130 0.0 0.0 0.00 0.00 0.00 82 1013.6
20260509031027 10 130 0.0 0.0 0.00 0.00 0.00 81 1013.4
20260509030525 11 130 0.0 0.0 0.00 0.00 0.00 81 1013.6
20260509030022 11 130 0.0 0.0 0.00 0.00 0.00 80 1013.4
20260509025518 11 129 0.0 0.0 0.00 0.00 0.00 79 1013.6
20260509025013 11 129 0.0 0.0 0.00 0.00 0.00 79 1013.7
20260509024509 11 129 0.0 0.0 0.00 0.00 0.00 78 1013.7
20260509024006 11 129 0.0 0.0 0.00 0.00 0.00 78 1013.6
20260509023504 11 129 0.0 0.0 0.00 0.00 0.00 78 1013.6
20260509023000 11 129 0.0 0.0 0.00 0.00 0.00 79 1013.8
20260509022457 11 129 0.0 0.0 0.00 0.00 0.00 78 1013.7
20260509021954 11 129 0.0 0.0 0.00 0.00 0.00 77 1014.0
20260509021451 11 129 0.0 0.0 0.00 0.00 0.00 77 1013.9
20260509020948 11 129 0.0 0.0 0.00 0.00 0.00 76 1013.9
20260509020447 11 129 0.0 0.0 0.00 0.00 0.00 78 1013.8
20260509015943 11 129 0.0 0.0 0.00 0.00 0.00 77 1013.9
20260509015442 11 129 0.0 0.0 0.00 0.00 0.00 77 1013.9
20260509014938 11 129 0.0 0.0 0.00 0.00 0.00 77 1013.7
20260509014436 12 129 0.0 0.0 0.00 0.00 0.00 76 1013.6
20260509013932 12 129 0.0 0.0 0.00 0.00 0.00 74 1013.5
20260509013429 12 129 0.0 0.0 0.00 0.00 0.00 73 1013.5
20260509012924 12 129 0.0 0.0 0.00 0.00 0.00 73 1013.7
20260509012421 12 129 0.0 0.0 0.00 0.00 0.00 73 1013.7
20260509011918 12 130 0.0 0.0 0.00 0.00 0.00 72 1013.6
20260509011415 13 130 0.0 0.0 0.00 0.00 0.00 71 1013.5
20260509010914 13 130 0.0 0.0 0.00 0.00 0.00 70 1013.7
20260509010411 13 130 0.0 0.0 0.00 0.00 0.00 68 1013.2
20260509005907 14 130 0.0 0.0 0.00 0.00 0.00 68 1013.5
20260509005406 15 130 0.0 0.0 0.00 0.00 0.00 66 1013.3
20260509004905 15 130 0.0 0.0 0.00 0.00 0.00 65 1013.4
20260509004402 15 130 0.0 0.0 0.00 0.00 0.00 62 1013.6
20260509003859 16 130 0.0 0.0 0.00 0.00 0.00 61 1013.6
20260509003357 16 130 0.0 0.0 0.00 0.00 0.00 59 1013.6
20260509002854 16 130 0.0 0.0 0.00 0.00 0.00 59 1013.5
20260509002352 17 130 0.0 0.0 0.00 0.00 0.00 58 1013.3
20260509001849 17 128 0.0 0.0 0.00 0.00 0.00 58 1013.3
20260509001345 17 128 0.0 0.0 0.00 0.00 0.00 56 1013.2
20260509000842 17 128 0.0 0.0 0.00 0.00 0.00 48 1013.3
20260509000340 18 128 0.0 0.0 0.00 0.00 0.00 51 1013.1
20260508235836 18 128 0.0 0.0 0.00 0.00 0.00 47 1013.2
20260508235333 18 128 0.0 0.0 0.00 0.00 0.00 44 1013.1
20260508234830 19 128 0.0 0.0 0.00 0.00 0.00 45 1013.1
20260508234327 19 128 0.0 0.0 0.00 0.00 0.00 42 1013.0
20260508233825 20 128 0.0 0.0 0.00 0.00 0.00 36 1013.1
20260508233324 20 128 0.0 0.0 0.00 0.00 0.00 40 1013.0
20260508232821 20 128 0.0 0.0 0.00 0.00 0.00 37 1013.2
20260508232317 20 129 0.0 0.0 0.00 0.00 0.00 36 1012.9
20260508231816 20 129 0.0 0.0 0.00 0.00 0.00 39 1012.9
20260508231311 20 129 0.0 0.0 0.00 0.00 0.00 46 1012.9
20260508230808 20 129 0.0 0.0 0.00 0.00 0.00 40 1013.1
20260508230305 20 129 0.0 0.0 0.00 0.00 0.00 39 1013.0
20260508225803 20 235 0.0 0.0 0.00 0.00 0.00 38 1012.8
20260508225259 20 235 0.0 0.0 0.00 0.00 0.00 41 1012.8
20260508224757 20 235 0.0 0.0 0.00 0.00 0.00 37 1012.8
20260508224254 20 235 0.0 0.0 0.00 0.00 0.00 36 1013.0
20260508223752 21 235 0.0 0.0 0.00 0.00 0.00 36 1012.9
20260508223249 21 237 0.0 0.0 0.00 0.00 0.00 34 1013.0
20260508222746 21 47 0.0 0.0 0.00 0.00 0.00 39 1013.0
20260508222243 20 352 0.0 0.0 0.00 0.00 0.00 36 1012.9
20260508221740 20 258 0.0 0.0 0.00 0.00 0.00 35 1013.1
20260508221236 21 344 0.0 0.0 0.00 0.00 0.00 36 1012.9
20260508220731 21 319 0.0 0.0 0.00 0.00 0.00 36 1013.0
20260508220229 22 337 0.0 6.4 0.00 0.00 0.00 32 1012.9
20260508215725 22 289 0.0 0.0 0.00 0.00 0.00 32 1013.2
20260508215221 22 329 0.0 3.2 0.00 0.00 0.00 32 1013.1
20260508214719 21 304 0.0 1.6 0.00 0.00 0.00 31 1013.1
20260508214216 22 265 6.4 9.7 0.00 0.00 0.00 31 1013.0
20260508213712 22 19 3.2 4.8 0.00 0.00 0.00 30 1013.1
20260508213209 21 105 0.0 1.6 0.00 0.00 0.00 34 1013.1
20260508212705 20 294 0.0 3.2 0.00 0.00 0.00 33 1013.1
20260508212202 20 1 0.0 3.2 0.00 0.00 0.00 33 1013.1
20260508211657 20 252 4.8 4.8 0.00 0.00 0.00 33 1013.1
20260508211153 20 4 4.8 9.7 0.00 0.00 0.00 33 1013.3
20260508210651 21 278 0.0 3.2 0.00 0.00 0.00 33 1013.1
20260508210148 21 294 4.8 6.4 0.00 0.00 0.00 31 1013.2
20260508205645 22 12 3.2 6.4 0.00 0.00 0.00 30 1013.1
20260508205141 21 323 0.0 3.2 0.00 0.00 0.00 30 1013.2
20260508204637 22 17 0.0 6.4 0.00 0.00 0.00 31 1013.2
20260508204134 23 244 1.6 3.2 0.00 0.00 0.00 32 1013.3
20260508203630 22 319 0.0 6.4 0.00 0.00 0.00 32 1013.3
20260508203126 22 274 8.0 11.3 0.00 0.00 0.00 29 1013.4
20260508202622 21 26 6.4 11.3 0.00 0.00 0.00 30 1013.4